[Date Prev][Date Next][Thread Prev][Thread Next] - [Date Index][Thread Index][Author Index]

2 Line ISS Keps 5-15



ISS
1 25544U 98067A   05135.33138568  .00024149  00000-0  18711-3 0  4773
2 25544 051.6456 069.1808 0005927 122.1506 019.4811 15.71692057370514
----
Via the sarex mailing list at AMSAT.ORG courtesy of AMSAT-NA.
To unsubscribe, send "unsubscribe sarex" to Majordomo@amsat.org



AMSAT Top AMSAT Home